• In Lithuania
  • List of Countries
  • For 7 days
  • Water Temperature
  • Satellite Maps
  • Weather Map
  • Weather Widgets
  • user-avatar
    Login

    Hourly Weather Guarda

    Today, 16 October, Tuesday

    Time Temperature Precipitation Wind Pressure Humidity
    00:00 +10°C° 0 mm 1 mps 684 mmHg 92%
    01:00 +10°C° 0 mm 1 mps 684 mmHg 92%
    02:00 +10°C° 0 mm 1 mps 684 mmHg 92%
    03:00 +10°C° 0 mm 1 mps 684 mmHg 92%
    04:00 +10°C° 0 mm 1 mps 685 mmHg 93%
    05:00 +9°C° 0 mm 1 mps 685 mmHg 94%
    06:00 +9°C° 0 mm 1 mps 685 mmHg 95%
    07:00 +10°C° 0 mm 1 mps 686 mmHg 90%
    08:00 +11°C° 0 mm 1 mps 686 mmHg 85%
    09:00 +12°C° 0 mm 1 mps 687 mmHg 80%
    10:00 +14°C° 0 mm 1 mps 688 mmHg 72%
    11:00 +16°C° 0 mm 1 mps 688 mmHg 63%
    12:00 +19°C° 0 mm 1 mps 689 mmHg 55%
    13:00 +19°C° 0 mm 1 mps 689 mmHg 52%
    14:00 +19°C° 0 mm 2 mps 688 mmHg 49%
    15:00 +19°C° 0 mm 2 mps 688 mmHg 46%
    16:00 +18°C° 0 mm 2 mps 688 mmHg 52%
    17:00 +16°C° 0 mm 1 mps 688 mmHg 58%
    18:00 +15°C° 0 mm 1 mps 688 mmHg 64%
    19:00 +14°C° 0 mm 1 mps 688 mmHg 68%
    20:00 +13°C° 0 mm 1 mps 688 mmHg 72%
    21:00 +12°C° 0 mm 1 mps 688 mmHg 76%
    22:00 +12°C° 0 mm 1 mps 688 mmHg 77%
    23:00 +11°C° 0 mm 1 mps 688 mmHg 79%

    Tomorrow, 17 October, Wednesday

    Time Temperature Precipitation Wind Pressure Humidity
    00:00 +10°C° 0 mm 0 mps 688 mmHg 80%
    01:00 +10°C° 0 mm 0 mps 688 mmHg 81%
    02:00 +9°C° 0 mm 0 mps 688 mmHg 81%
    03:00 +9°C° 0 mm 0 mps 688 mmHg 82%
    04:00 +9°C° 0 mm 0 mps 688 mmHg 83%
    05:00 +9°C° 0 mm 0 mps 688 mmHg 84%
    06:00 +8°C° 0 mm 0 mps 687 mmHg 85%
    07:00 +10°C° 0 mm 0 mps 688 mmHg 77%
    08:00 +12°C° 0 mm 0 mps 688 mmHg 70%
    09:00 +14°C° 0 mm 0 mps 689 mmHg 62%
    10:00 +16°C° 0 mm 1 mps 689 mmHg 57%
    11:00 +19°C° 0 mm 1 mps 689 mmHg 52%
    12:00 +19°C° 0 mm 2 mps 689 mmHg 47%
    13:00 +19°C° 0 mm 2 mps 688 mmHg 46%
    14:00 +19°C° 0 mm 3 mps 688 mmHg 45%
    15:00 +19°C° 0 mm 3 mps 687 mmHg 44%
    16:00 +18°C° 0.1 mm 3 mps 687 mmHg 53%
    17:00 +16°C° 0.1 mm 3 mps 686 mmHg 62%
    18:00 +13°C° 0.1 mm 3 mps 686 mmHg 71%
    19:00 +12°C° 0.8 mm 3 mps 685 mmHg 76%
    20:00 +11°C° 0.8 mm 3 mps 685 mmHg 82%
    21:00 +10°C° 0.8 mm 3 mps 685 mmHg 87%
    22:00 +10°C° 1 mm 3 mps 685 mmHg 87%
    23:00 +10°C° 1 mm 3 mps 685 mmHg 88%

    Day after tomorrow, 18 October, Thursday

    Time Temperature Precipitation Wind Pressure Humidity
    00:00 +9°C° 1 mm 3 mps 684 mmHg 88%
    01:00 +9°C° 0.2 mm 3 mps 684 mmHg 88%
    02:00 +9°C° 0.2 mm 3 mps 683 mmHg 88%
    03:00 +8°C° 0.2 mm 3 mps 683 mmHg 87%
    04:00 +8°C° 0.1 mm 3 mps 683 mmHg 87%
    05:00 +8°C° 0.1 mm 3 mps 683 mmHg 87%
    06:00 +8°C° 0.1 mm 3 mps 682 mmHg 87%
    07:00 +9°C° 0.1 mm 3 mps 683 mmHg 85%
    08:00 +10°C° 0.1 mm 4 mps 683 mmHg 83%
    09:00 +10°C° 0.1 mm 4 mps 683 mmHg 81%
    10:00 +12°C° 0.1 mm 5 mps 684 mmHg 75%
    11:00 +14°C° 0.1 mm 5 mps 684 mmHg 69%
    12:00 +15°C° 0.1 mm 6 mps 684 mmHg 64%
    13:00 +16°C° 0 mm 6 mps 684 mmHg 58%
    14:00 +19°C° 0 mm 6 mps 684 mmHg 53%
    15:00 +20°C° 0 mm 6 mps 684 mmHg 47%
    16:00 +17°C° 0 mm 5 mps 684 mmHg 51%
    17:00 +17°C° 0 mm 4 mps 684 mmHg 56%
    18:00 +15°C° 0 mm 4 mps 684 mmHg 60%
    19:00 +14°C° 0 mm 4 mps 684 mmHg 64%
    20:00 +13°C° 0 mm 4 mps 685 mmHg 68%
    21:00 +12°C° 0 mm 4 mps 685 mmHg 72%
    22:00 +12°C° 0 mm 4 mps 685 mmHg 73%
    23:00 +12°C° 0 mm 4 mps 685 mmHg 74%

    19 October, Friday

    Time Temperature Precipitation Wind Pressure Humidity
    00:00 +11°C° 0 mm 4 mps 685 mmHg 75%
    01:00 +11°C° 0 mm 4 mps 685 mmHg 76%
    02:00 +11°C° 0 mm 4 mps 685 mmHg 76%
    03:00 +11°C° 0 mm 4 mps 685 mmHg 77%
    04:00 +11°C° 0 mm 4 mps 685 mmHg 77%
    05:00 +11°C° 0 mm 4 mps 685 mmHg 77%
    06:00 +11°C° 0 mm 4 mps 685 mmHg 77%
    07:00 +12°C° 0 mm 5 mps 685 mmHg 72%
    08:00 +13°C° 0 mm 6 mps 685 mmHg 67%
    09:00 +14°C° 0 mm 7 mps 686 mmHg 62%
    10:00 +15°C° 0 mm 8 mps 686 mmHg 58%
    11:00 +17°C° 0 mm 8 mps 686 mmHg 53%
    12:00 +18°C° 0 mm 9 mps 686 mmHg 48%
    13:00 +18°C° 0 mm 8 mps 686 mmHg 49%
    14:00 +18°C° 0 mm 8 mps 686 mmHg 50%
    15:00 +18°C° 0 mm 8 mps 686 mmHg 50%
    16:00 +17°C° 0 mm 7 mps 686 mmHg 55%
    17:00 +16°C° 0 mm 6 mps 686 mmHg 60%
    18:00 +15°C° 0 mm 4 mps 686 mmHg 65%
    19:00 +14°C° 0 mm 4 mps 686 mmHg 68%
    20:00 +14°C° 0 mm 4 mps 687 mmHg 71%
    21:00 +13°C° 0 mm 4 mps 687 mmHg 74%
    22:00 +13°C° 0 mm 4 mps 687 mmHg 74%
    23:00 +13°C° 0 mm 4 mps 687 mmHg 74%

    20 October, Saturday

    Time Temperature Precipitation Wind Pressure Humidity
    00:00 +12°C° 0 mm 4 mps 688 mmHg 74%
    01:00 +12°C° 0 mm 4 mps 687 mmHg 75%
    02:00 +11°C° 0 mm 4 mps 687 mmHg 75%
    03:00 +11°C° 0 mm 4 mps 687 mmHg 75%
    04:00 +11°C° 0 mm 4 mps 687 mmHg 76%
    05:00 +11°C° 0 mm 4 mps 687 mmHg 76%
    06:00 +10°C° 0 mm 3 mps 687 mmHg 77%
    07:00 +11°C° 0 mm 4 mps 688 mmHg 73%
    08:00 +12°C° 0 mm 4 mps 688 mmHg 70%
    09:00 +13°C° 0 mm 5 mps 689 mmHg 66%
    10:00 +15°C° 0 mm 5 mps 689 mmHg 62%
    11:00 +16°C° 0 mm 5 mps 689 mmHg 57%
    12:00 +19°C° 0 mm 5 mps 690 mmHg 53%
    13:00 +19°C° 0 mm 4 mps 689 mmHg 51%
    14:00 +19°C° 0 mm 4 mps 689 mmHg 49%
    15:00 +19°C° 0 mm 4 mps 689 mmHg 47%
    16:00 +18°C° 0 mm 3 mps 689 mmHg 51%
    17:00 +17°C° 0 mm 3 mps 689 mmHg 54%
    18:00 +16°C° 0 mm 2 mps 688 mmHg 58%
    19:00 +15°C° 0 mm 2 mps 689 mmHg 61%
    20:00 +14°C° 0 mm 2 mps 689 mmHg 64%
    21:00 +13°C° 0 mm 2 mps 689 mmHg 67%
    22:00 +13°C° 0 mm 2 mps 689 mmHg 70%
    23:00 +12°C° 0 mm 2 mps 689 mmHg 73%

    21 October, Sunday

    Time Temperature Precipitation Wind Pressure Humidity
    00:00 +12°C° 0 mm 2 mps 689 mmHg 75%
    01:00 +12°C° 0 mm 2 mps 688 mmHg 78%
    02:00 +10°C° 0 mm 2 mps 688 mmHg 80%
    03:00 +10°C° 0 mm 2 mps 688 mmHg 83%
    04:00 +10°C° 0 mm 2 mps 688 mmHg 84%
    05:00 +9°C° 0 mm 2 mps 688 mmHg 86%
    06:00 +9°C° 0 mm 2 mps 688 mmHg 88%
    07:00 +10°C° 0 mm 2 mps 689 mmHg 83%
    08:00 +13°C° 0 mm 2 mps 689 mmHg 77%
    09:00 +14°C° 0 mm 2 mps 690 mmHg 72%
    10:00 +16°C° 0 mm 2 mps 690 mmHg 66%
    11:00 +17°C° 0 mm 2 mps 690 mmHg 59%
    12:00 +19°C° 0 mm 2 mps 691 mmHg 52%
    13:00 +20°C° 0 mm 2 mps 690 mmHg 51%
    14:00 +20°C° 0 mm 2 mps 690 mmHg 50%
    15:00 +20°C° 0 mm 2 mps 690 mmHg 49%
    16:00 +19°C° 0 mm 2 mps 689 mmHg 54%
    17:00 +19°C° 0 mm 1 mps 689 mmHg 59%
    18:00 +16°C° 0 mm 1 mps 689 mmHg 63%
    19:00 +16°C° 0 mm 1 mps 689 mmHg 66%
    20:00 +15°C° 0 mm 1 mps 689 mmHg 68%
    21:00 +14°C° 0 mm 1 mps 689 mmHg 70%
    22:00 +14°C° 0 mm 1 mps 689 mmHg 72%
    23:00 +14°C° 0 mm 1 mps 689 mmHg 73%
    Show more